Phoenix, AZ

9:16 PM MST on February 23, 2018 (GMT -0700)
Phoenix Sky Harbor International

Weather History for KPHX - May, 2013

Change the Weather History Date:

Friday, May 10, 2013

  Actual Average Record
Temperature  
Mean Temperature 81 °F 80 °F  
Max Temperature 93 °F 93 °F 111 °F (1934)
Min Temperature 68 °F 68 °F 46 °F (1930)
Degree Days  
Heating Degree Days 0 0  
Month to date heating degree days 0 0  
Since 1 July heating degree days 881 934  
Cooling Degree Days 16 15  
Month to date cooling degree days 150 140  
Year to date cooling degree days 654 495  
Growing Degree Days 30 (Base 50)    
Moisture  
Dew Point 34 °F    
Average Humidity 21    
Maximum Humidity 32    
Minimum Humidity 10    
Precipitation  
Precipitation 0.00 in 0.01 in 0.78 in (1944)
Month to date precipitation 0.00 0.04  
Year to date precipitation 2.61 3.14  
Snow  
Snow 0.00 in - - ()
Month to date snowfall 0.0  
Year to date snowfall 0.0  
Since 1 July snowfall 0.0  
Snow Depth 0.00 in    
Sea Level Pressure  
Sea Level Pressure 29.89 in    
Wind  
Wind Speed 6 mph (WSW)    
Max Wind Speed 28 mph    
Max Gust Speed 49 mph    
Visibility 10 miles    
Events      
T = Trace of Precipitation, MM = Missing Value Source: NWS Daily Summary

Daily Weather History Graph

Daily Weather History Graph

Search for Another Location

Airport or City:

Trip Planner

Search our weather history database for the weather conditions in past years. The results will help you decide how hot, cold, wet, or windy it might be!

Date:

Astronomy

May. 10, 2013 Rise Set
Actual Time 5:31 AM MST 7:17 PM MST
Civil Twilight 5:04 AM MST 7:45 PM MST
Nautical Twilight 4:31 AM MST 8:17 PM MST
Astronomical Twilight 3:57 AM MST 8:52 PM MST
Moon 5:58 AM MST (5/10) 8:09 PM MST (5/10)
Length of Visible Light 14h 40m
Length of Day
13h 46m
New Moon, 1% of the Moon is Illuminated
May 10
New Moon
May 17
First Quarter
May 24
Full
May 31
Last Quarter
Jun 8
New

Hourly Weather History & Observations

Time (MST) Temp. Dew Point Humidity Pressure Visibility Wind Dir Wind Speed Gust Speed Precip Events Conditions
12:51 AM 73.0 °F 37.9 °F 28% 29.87 in 10.0 mi SW 4.6 mph - N/A   Partly Cloudy
1:51 AM 73.0 °F 37.0 °F 27% 29.86 in 10.0 mi SW 4.6 mph - N/A   Partly Cloudy
2:51 AM 73.0 °F 37.0 °F 27% 29.86 in 10.0 mi West 5.8 mph - N/A   Partly Cloudy
3:51 AM 70.0 °F 37.0 °F 30% 29.87 in 10.0 mi SW 3.5 mph - N/A   Partly Cloudy
4:51 AM 69.1 °F 37.9 °F 32% 29.88 in 10.0 mi Calm Calm - N/A   Partly Cloudy
5:51 AM 68.0 °F 37.0 °F 32% 29.89 in 10.0 mi SW 3.5 mph - N/A   Partly Cloudy
6:51 AM 71.1 °F 37.9 °F 30% 29.92 in 10.0 mi SW 4.6 mph - N/A   Partly Cloudy
7:51 AM 73.9 °F 37.9 °F 27% 29.93 in 10.0 mi Calm Calm - N/A   Partly Cloudy
8:51 AM 77.0 °F 37.0 °F 24% 29.94 in 10.0 mi Calm Calm - N/A   Scattered Clouds
9:51 AM 81.0 °F 37.9 °F 21% 29.94 in 10.0 mi North 4.6 mph - N/A   Scattered Clouds
10:51 AM 84.9 °F 37.0 °F 18% 29.93 in 10.0 mi South 4.6 mph - N/A   Scattered Clouds
11:51 AM 84.9 °F 36.0 °F 17% 29.91 in 10.0 mi WNW 3.5 mph - N/A   Scattered Clouds
12:51 PM 89.1 °F 35.1 °F 15% 29.89 in 10.0 mi Variable 3.5 mph - N/A   Scattered Clouds
1:51 PM 90.0 °F 30.0 °F 12% 29.87 in 10.0 mi NE 5.8 mph - N/A   Scattered Clouds
2:51 PM 91.0 °F 30.0 °F 11% 29.85 in 10.0 mi Variable 4.6 mph - N/A   Scattered Clouds
3:51 PM 91.9 °F 27.0 °F 10% 29.83 in 10.0 mi SSW 9.2 mph - N/A   Scattered Clouds
4:51 PM 91.9 °F 26.1 °F 9% 29.82 in 10.0 mi WNW 9.2 mph - N/A   Scattered Clouds
5:51 PM 91.0 °F 26.1 °F 10% 29.83 in 10.0 mi SW 8.1 mph - N/A   Scattered Clouds
6:51 PM 90.0 °F 26.1 °F 10% 29.85 in 10.0 mi WSW 8.1 mph - N/A   Scattered Clouds
7:51 PM 88.0 °F 26.1 °F 11% 29.86 in 10.0 mi SW 4.6 mph - N/A   Mostly Cloudy
8:51 PM 89.1 °F 28.9 °F 12% 29.91 in 10.0 mi NNE 10.4 mph 49.5 mph N/A   Mostly Cloudy
9:16 PM 87.8 °F 30.2 °F 13% 29.97 in 10.0 mi North 8.1 mph - N/A   Mostly Cloudy
9:51 PM 88.0 °F 30.9 °F 13% 29.92 in 10.0 mi NW 15.0 mph - N/A   Mostly Cloudy
10:51 PM 84.0 °F 36.0 °F 18% 29.94 in 10.0 mi ESE 11.5 mph - N/A   Scattered Clouds
11:51 PM 82.0 °F 37.0 °F 20% 29.94 in 10.0 mi East 6.9 mph - N/A   Scattered Clouds